Weather History for Edithburgh Aws, South Australia

Change the Weather History Date:

Thursday, August 22, 2013

  Actual Average Record
Temperature  
Mean Temperature 54 °F -  
Max Temperature 59 °F - - ()
Min Temperature 49 °F - - ()
Degree Days  
Heating Degree Days 11    
Growing Degree Days 4 (Base 50)    
Moisture  
Dew Point 49 °F    
Average Humidity 80    
Maximum Humidity 93    
Minimum Humidity 61    
Precipitation  
Precipitation 0.02 in - - ()
Sea Level Pressure  
Sea Level Pressure 29.98 in    
Wind  
Wind Speed 9 mph ()    
Max Wind Speed 20 mph    
Max Gust Speed -    
T = Trace of Precipitation, MM = Missing Value Source: Averaged Metar Reports

Daily Weather History Graph

Daily Weather History Graph

Search for Another Location

Airport:

Trip Planner

Search our weather history database for the weather conditions in past years. The results will help you decide how hot, cold, wet, or windy it might be!

Date:

Astronomy

Aug. 22, 2013 Rise Set
Actual Time 6:51 AM CST 5:52 PM CST
Civil Twilight 6:25 AM CST 6:18 PM CST
Nautical Twilight 5:56 AM CST 6:48 PM CST
Astronomical Twilight 5:26 AM CST 7:17 PM CST
Moon 7:19 PM CST (8/22) 7:07 AM CST (8/22)
Length of Visible Light 11h 52m
Length of Day
11h 00m
Full, 99% of the Moon is Illuminated
Aug 22
Full
Aug 28
Last Quarter
Sep 5
New
Sep 13
First Quarter
Sep 19
Full

Hourly Weather History & Observations

Time (CST) Temp. Dew Point Humidity Pressure Visibility Wind Dir Wind Speed Gust Speed Precip Events Conditions
12:00 AM 49 °F 47 °F 90% 29.96 in - WNW 9.2 mph - -   Unknown Precipitation
1:30 AM 50 °F 49 °F 93% 29.96 in - WNW 11.5 mph - -  
2:30 AM 50 °F 46 °F 79% 29.96 in - WSW 9.2 mph - -  
3:00 AM 51 °F 43 °F 65% 29.96 in - WSW 10.4 mph - -   Unknown Precipitation
4:30 AM 52 °F 44 °F 68% 29.96 in - WSW 9.2 mph - -  
5:30 AM 49 °F 46 °F 83% 29.97 in - WNW 4.6 mph - -  
6:00 AM 49 °F 46 °F 83% 29.97 in - West 5.8 mph - -  
7:30 AM 51 °F 49 °F 89% 30.00 in - West 8.1 mph - -  
8:30 AM 52 °F 50 °F 89% 30.01 in - WNW 9.2 mph - -  
10:30 AM 56 °F 50 °F 75% 30.01 in - West 13.8 mph - -  
11:30 AM 59 °F 49 °F 61% 30.00 in - West 15.0 mph - -  
1:30 PM 59 °F 51 °F 66% 29.98 in - West 18.4 mph - -  
2:30 PM 56 °F 52 °F 83% 29.98 in - West 19.6 mph - -  
3:00 PM 56 °F 52 °F 82% 29.97 in - West 17.3 mph - -   Unknown Precipitation
4:30 PM 57 °F 51 °F 73% 29.96 in - West 12.7 mph - -  
5:30 PM 55 °F 49 °F 73% 29.98 in - West 12.7 mph - -  
7:30 PM 53 °F 50 °F 85% 30.01 in - WNW 8.1 mph - -  
10:30 PM 54 °F 52 °F 92% 30.01 in - West 10.4 mph - -  
11:30 PM 54 °F 52 °F 92% 30.01 in - West 8.1 mph - -